TimePDT,TemperatureF,Dew PointF,Humidity,Sea Level PressureIn,VisibilityMPH,Wind Direction,Wind SpeedMPH,Gust SpeedMPH,PrecipitationIn,Events,Conditions,WindDirDegrees,DateUTC
12:15 AM,75.2,55.4,50,29.89,10.0,NW,9.2,-,N/A,,Clear,310,2013-08-14 07:15:00
12:35 AM,75.2,53.6,47,29.89,10.0,NW,8.1,-,N/A,,Clear,320,2013-08-14 07:35:00
12:55 AM,73.4,53.6,50,29.89,10.0,NNW,6.9,-,N/A,,Clear,330,2013-08-14 07:55:00
1:15 AM,73.4,53.6,50,29.89,10.0,NW,6.9,-,N/A,,Clear,320,2013-08-14 08:15:00
1:35 AM,71.6,51.8,50,29.89,10.0,NNW,5.8,-,N/A,,Clear,330,2013-08-14 08:35:00
1:55 AM,73.4,53.6,50,29.89,10.0,NW,9.2,-,N/A,,Clear,320,2013-08-14 08:55:00
2:15 AM,71.6,51.8,50,29.88,10.0,NW,8.1,-,N/A,,Clear,320,2013-08-14 09:15:00
2:35 AM,69.8,51.8,53,29.88,10.0,NW,8.1,-,N/A,,Clear,320,2013-08-14 09:35:00
2:55 AM,69.8,51.8,53,29.88,10.0,NW,8.1,-,N/A,,Clear,320,2013-08-14 09:55:00
3:15 AM,68.0,51.8,56,29.88,10.0,NW,6.9,-,N/A,,Clear,320,2013-08-14 10:15:00
3:35 AM,66.2,51.8,60,29.88,10.0,NW,5.8,-,N/A,,Clear,310,2013-08-14 10:35:00
3:55 AM,66.2,51.8,60,29.88,10.0,WNW,4.6,-,N/A,,Clear,300,2013-08-14 10:55:00
4:15 AM,64.4,51.8,64,29.87,10.0,WNW,5.8,-,N/A,,Clear,300,2013-08-14 11:15:00
4:35 AM,64.4,51.8,64,29.88,10.0,WNW,3.5,-,N/A,,Clear,300,2013-08-14 11:35:00
4:55 AM,64.4,51.8,64,29.88,10.0,WNW,3.5,-,N/A,,Clear,300,2013-08-14 11:55:00
5:15 AM,64.4,51.8,64,29.88,10.0,Calm,Calm,-,N/A,,Clear,0,2013-08-14 12:15:00
5:35 AM,62.6,50.0,63,29.88,10.0,Calm,Calm,-,N/A,,Clear,0,2013-08-14 12:35:00
5:55 AM,62.6,51.8,68,29.89,10.0,Calm,Calm,-,N/A,,Clear,0,2013-08-14 12:55:00
6:15 AM,60.8,50.0,68,29.90,9.0,Calm,Calm,-,N/A,,Clear,0,2013-08-14 13:15:00
6:35 AM,60.8,51.8,72,29.90,9.0,Calm,Calm,-,N/A,,Clear,0,2013-08-14 13:35:00
6:55 AM,60.8,50.0,68,29.91,8.0,SE,4.6,-,N/A,,Clear,140,2013-08-14 13:55:00
7:15 AM,62.6,51.8,68,29.91,9.0,Calm,Calm,-,N/A,,Clear,0,2013-08-14 14:15:00
7:35 AM,64.4,53.6,68,29.92,8.0,SSE,3.5,-,N/A,,Clear,160,2013-08-14 14:35:00
7:55 AM,64.4,53.6,68,29.92,8.0,Calm,Calm,-,N/A,,Clear,0,2013-08-14 14:55:00
8:15 AM,66.2,53.6,64,29.92,7.0,South,4.6,-,N/A,,Clear,180,2013-08-14 15:15:00
8:35 AM,69.8,53.6,56,29.92,9.0,SSE,5.8,-,N/A,,Clear,150,2013-08-14 15:35:00
8:55 AM,71.6,55.4,57,29.93,9.0,SSE,6.9,-,N/A,,Clear,160,2013-08-14 15:55:00
9:15 AM,73.4,55.4,53,29.93,9.0,SSE,4.6,-,N/A,,Clear,160,2013-08-14 16:15:00
9:35 AM,73.4,55.4,53,29.93,8.0,South,3.5,-,N/A,,Clear,170,2013-08-14 16:35:00
9:55 AM,75.2,55.4,50,29.93,8.0,SSE,3.5,-,N/A,,Clear,160,2013-08-14 16:55:00
10:15 AM,77.0,55.4,47,29.93,8.0,SW,4.6,-,N/A,,Clear,230,2013-08-14 17:15:00
10:35 AM,78.8,55.4,44,29.93,9.0,SSW,4.6,-,N/A,,Clear,200,2013-08-14 17:35:00
10:55 AM,78.8,55.4,44,29.93,10.0,Calm,Calm,-,N/A,,Clear,0,2013-08-14 17:55:00
11:15 AM,80.6,53.6,39,29.92,9.0,South,4.6,-,N/A,,Clear,180,2013-08-14 18:15:00
11:35 AM,82.4,55.4,39,29.92,10.0,Calm,Calm,-,N/A,,Clear,0,2013-08-14 18:35:00
11:55 AM,84.2,55.4,37,29.91,9.0,Calm,Calm,-,N/A,,Clear,0,2013-08-14 18:55:00
12:55 PM,89.6,60.8,38,29.90,10.0,NW,6.9,-,N/A,,Clear,310,2013-08-14 19:55:00
1:15 PM,89.6,57.2,33,29.89,10.0,West,4.6,-,N/A,,Clear,280,2013-08-14 20:15:00
1:35 PM,91.4,57.2,31,29.88,10.0,Calm,Calm,-,N/A,,Clear,0,2013-08-14 20:35:00
1:55 PM,91.4,57.2,31,29.87,10.0,WSW,5.8,-,N/A,,Clear,250,2013-08-14 20:55:00
2:15 PM,93.2,55.4,28,29.87,10.0,WNW,8.1,-,N/A,,Clear,290,2013-08-14 21:15:00
2:35 PM,95.0,57.2,28,29.86,10.0,West,5.8,-,N/A,,Clear,270,2013-08-14 21:35:00
2:55 PM,95.0,55.4,26,29.85,10.0,West,6.9,-,N/A,,Clear,270,2013-08-14 21:55:00
3:15 PM,96.8,59.0,28,29.84,10.0,West,4.6,-,N/A,,Clear,280,2013-08-14 22:15:00
3:35 PM,96.8,59.0,28,29.84,10.0,West,8.1,-,N/A,,Clear,280,2013-08-14 22:35:00
3:55 PM,96.8,60.8,30,29.83,10.0,WNW,6.9,-,N/A,,Clear,300,2013-08-14 22:55:00
4:15 PM,96.8,57.2,27,29.82,10.0,West,8.1,-,N/A,,Clear,280,2013-08-14 23:15:00
4:35 PM,98.6,57.2,25,29.82,10.0,WNW,9.2,-,N/A,,Clear,290,2013-08-14 23:35:00
4:55 PM,98.6,57.2,25,29.81,10.0,WNW,8.1,-,N/A,,Clear,290,2013-08-14 23:55:00
5:15 PM,98.6,57.2,25,29.81,10.0,WNW,9.2,-,N/A,,Clear,290,2013-08-15 00:15:00
5:35 PM,96.8,55.4,25,29.80,10.0,WNW,9.2,-,N/A,,Clear,290,2013-08-15 00:35:00
5:55 PM,96.8,53.6,23,29.79,10.0,WNW,8.1,-,N/A,,Clear,290,2013-08-15 00:55:00
6:15 PM,96.8,53.6,23,29.79,10.0,WNW,9.2,-,N/A,,Clear,300,2013-08-15 01:15:00
6:35 PM,96.8,53.6,23,29.79,10.0,NW,9.2,-,N/A,,Clear,310,2013-08-15 01:35:00
6:55 PM,95.0,53.6,25,29.79,10.0,NW,9.2,-,N/A,,Clear,310,2013-08-15 01:55:00
7:15 PM,93.2,53.6,26,29.79,10.0,NW,8.1,-,N/A,,Clear,310,2013-08-15 02:15:00
7:35 PM,91.4,55.4,29,29.80,10.0,NW,9.2,-,N/A,,Clear,310,2013-08-15 02:35:00
7:55 PM,89.6,55.4,31,29.81,10.0,NW,9.2,-,N/A,,Clear,310,2013-08-15 02:55:00
8:15 PM,87.8,55.4,33,29.81,10.0,NW,5.8,-,N/A,,Clear,310,2013-08-15 03:15:00
8:35 PM,86.0,55.4,35,29.81,10.0,NW,9.2,-,N/A,,Clear,310,2013-08-15 03:35:00
8:55 PM,82.4,55.4,39,29.82,10.0,NW,8.1,-,N/A,,Clear,310,2013-08-15 03:55:00
9:15 PM,82.4,55.4,39,29.82,10.0,NW,10.4,-,N/A,,Clear,310,2013-08-15 04:15:00
9:35 PM,80.6,55.4,42,29.83,10.0,NW,8.1,-,N/A,,Clear,310,2013-08-15 04:35:00
9:55 PM,80.6,55.4,42,29.84,10.0,NW,6.9,-,N/A,,Clear,310,2013-08-15 04:55:00
10:15 PM,78.8,53.6,42,29.84,10.0,NW,8.1,-,N/A,,Clear,320,2013-08-15 05:15:00
10:35 PM,78.8,53.6,42,29.85,10.0,NW,8.1,-,N/A,,Clear,310,2013-08-15 05:35:00
10:55 PM,77.0,53.6,44,29.85,10.0,NW,8.1,-,N/A,,Clear,310,2013-08-15 05:55:00
11:15 PM,77.0,53.6,44,29.85,10.0,NW,8.1,-,N/A,,Clear,310,2013-08-15 06:15:00
11:35 PM,75.2,53.6,47,29.86,10.0,NW,6.9,-,N/A,,Clear,310,2013-08-15 06:35:00
11:55 PM,73.4,53.6,50,29.86,10.0,NW,5.8,-,N/A,,Clear,320,2013-08-15 06:55:00